QPF
0.00 0.00 0.00 0.00 0.00 0.00 0.00 0.00 0.00 0.00 0.00 0.00 0.00 0.00 0.00 0.00 0.00 0.00 0.00 0.00 0.00 0.00
0.00 0.00 0.00 0.00 0.00 0.00 0.00 0.00 0.00 0.00 0.00 0.00 0.02 0.04 0.01 0.00 0.00 0.01 0.00 0.00 0.00 0.00
0.00 0.00 0.00 0.00 0.00 0.00 0.00 0.00 0.00 0.00 0.00 0.00 0.01 0.04 0.05 0.00 0.01 0.01 0.00 0.00 0.00 0.00
0.00 0.00 0.00 0.00 0.00 0.00 0.00 0.00 0.00 0.00 0.00 0.00 0.00 0.00 0.01 0.01 0.08 0.11 0.06 0.01 0.00 0.00
0.00 0.00 0.00 0.00 0.00 0.00 0.00 0.00 0.00 0.00 0.00 0.00 0.00 0.00 0.00 0.00 0.00 0.04 0.06 0.06 0.06 0.01
0.00 0.00 0.00 0.00 0.00 0.00 0.00 0.00 0.00 0.00 0.00 0.00 0.00 0.00 0.00 0.00 0.00 0.00 0.00 0.01 0.06 0.00
0.00 0.00 0.00 0.00 0.00 0.00 0.00 0.01 0.02 0.00 0.01 0.00 0.00 0.00 0.00 0.00 0.00 0.00 0.00 0.00 0.01 0.00
0.00 0.00 0.00 0.00 0.00 0.01 0.03 0.09 0.07 0.08 0.03 0.02 0.00 0.00 0.00 0.00 0.00 0.00 0.00 0.00 0.00 0.00
0.00 0.03 0.03 0.02 0.02 0.08 0.08 0.04 0.07 0.10 0.07 0.05 0.00 0.00 0.00 0.00 0.00 0.01 0.02 0.01 0.00 0.00
0.00 0.00 0.00 0.00 0.01 0.04 0.05 0.07 0.07 0.06 0.07 0.07 0.02 0.00 0.00 0.01 0.00 0.00 0.00 0.01 0.01 0.00
0.00 0.00 0.00 0.00 0.00 0.01 0.02 0.02 0.03 0.03 0.06 0.10 0.09 0.04 0.04 0.04 0.00 0.00 0.00 0.00 0.00 0.01
0.00 0.00 0.00 0.00 0.00 0.01 0.01 0.01 0.01 0.01 0.04 0.09 0.11 0.25 0.21 0.10 0.01 0.00 0.00 0.01 0.01 0.02
0.00 0.00 0.00 0.00 0.00 0.01 0.02 0.03 0.03 0.03 0.06 0.08 0.10 0.24 0.20 0.11 0.03 0.02 0.01 0.02 0.04 0.08
0.00 0.00 0.00 0.00 0.00 0.00 0.00 0.00 0.01 0.02 0.06 0.15 0.13 0.05 0.04 0.12 0.01 0.01 0.02 0.04 0.07 0.10
MSLP
1014.21 1014.24 1014.46 1014.46 1014.27 1014.31 1014.85 1014.87 1015.05 1015.00 1015.23 1015.47 1015.70 1015.54 1015.56 1015.79 1015.64 1015.28 1015.36 1015.53 1015.44 1014.84
1013.64 1013.92 1013.60 1013.87 1014.18 1014.35 1014.57 1014.28 1014.67 1014.49 1014.96 1015.13 1015.23 1015.43 1015.51 1015.54 1015.39 1015.41 1015.48 1015.17 1015.33 1015.35
1012.89 1013.35 1013.59 1013.57 1013.78 1013.73 1013.97 1014.42 1014.65 1014.80 1015.08 1015.28 1015.39 1015.61 1016.04 1015.80 1015.19 1015.29 1015.24 1015.04 1014.87 1015.29
1012.05 1012.50 1013.08 1013.17 1013.48 1013.89 1013.97 1014.14 1014.38 1014.70 1014.86 1014.91 1015.05 1015.34 1015.54 1015.70 1015.63 1015.99 1015.73 1015.31 1015.10 1015.20
1011.21 1011.70 1011.97 1012.61 1012.86 1013.32 1013.64 1013.82 1014.05 1014.27 1014.51 1014.60 1014.63 1014.82 1015.08 1015.17 1014.86 1015.01 1015.40 1015.49 1015.55 1014.95
1010.56 1010.83 1011.10 1011.37 1012.09 1012.49 1012.96 1013.32 1013.38 1013.65 1013.94 1014.18 1014.27 1014.32 1014.53 1014.74 1014.72 1014.65 1014.58 1014.71 1015.07 1015.07
1009.99 1010.16 1010.44 1010.82 1011.14 1011.59 1012.15 1012.67 1012.93 1013.02 1013.23 1013.45 1013.73 1013.79 1013.83 1014.04 1014.26 1014.30 1014.15 1014.16 1014.19 1014.29
1009.56 1009.92 1010.08 1010.21 1010.63 1011.10 1011.56 1012.28 1012.62 1012.73 1012.77 1012.92 1012.88 1012.93 1013.13 1013.25 1013.40 1013.68 1013.82 1013.70 1013.74 1013.89
1009.40 1009.83 1010.31 1010.65 1010.72 1010.86 1011.52 1011.71 1012.00 1012.18 1012.43 1012.61 1012.20 1012.04 1012.44 1012.71 1012.85 1012.96 1013.30 1013.44 1013.35 1013.54
1009.58 1009.87 1010.19 1010.62 1011.08 1011.22 1011.52 1011.79 1011.89 1011.89 1012.13 1012.08 1012.11 1011.80 1012.07 1012.37 1012.55 1012.44 1012.34 1012.73 1012.89 1012.78
1009.45 1009.85 1010.26 1010.65 1010.90 1011.08 1011.32 1011.30 1011.44 1011.55 1011.57 1011.70 1011.82 1011.85 1011.99 1012.19 1012.41 1012.28 1012.13 1011.98 1012.07 1012.31
1009.32 1009.86 1010.25 1010.52 1010.75 1011.02 1011.23 1011.25 1011.28 1011.34 1011.35 1011.51 1011.58 1011.66 1011.91 1012.29 1012.07 1011.86 1011.78 1011.89 1011.86 1011.96
1008.84 1009.48 1010.06 1010.50 1010.80 1010.88 1010.99 1011.10 1011.23 1011.21 1011.17 1011.28 1011.33 1011.38 1011.68 1012.08 1011.81 1011.27 1011.04 1010.99 1011.38 1011.79
1008.94 1009.31 1009.82 1010.30 1010.67 1011.09 1011.11 1011.15 1011.04 1011.05 1011.03 1011.18 1011.47 1011.96 1011.81 1012.07 1011.56 1011.04 1010.93 1010.43 1010.71 1012.09
Thickness
5763 5765 5766 5768 5771 5774 5770 5773 5776 5779 5778 5777 5777 5779 5781 5781 5783 5787 5785 5783 5785 5791
5767 5766 5771 5772 5773 5773 5775 5780 5778 5782 5779 5779 5779 5779 5782 5784 5786 5787 5786 5787 5787 5786
5771 5770 5771 5774 5773 5777 5779 5777 5776 5776 5777 5777 5778 5779 5776 5779 5788 5787 5788 5790 5791 5788
5776 5774 5772 5774 5774 5773 5776 5777 5776 5775 5776 5777 5778 5778 5778 5778 5781 5778 5781 5787 5788 5787
5780 5778 5777 5773 5775 5775 5774 5776 5777 5776 5777 5778 5780 5780 5779 5779 5784 5783 5780 5781 5781 5785
5780 5780 5780 5780 5778 5778 5777 5776 5780 5779 5777 5777 5779 5781 5781 5781 5782 5784 5785 5785 5782 5782
5779 5780 5782 5783 5783 5782 5780 5776 5777 5779 5779 5779 5779 5781 5782 5782 5782 5783 5785 5786 5787 5787
5778 5778 5780 5783 5783 5782 5780 5775 5775 5777 5778 5779 5781 5783 5783 5783 5783 5781 5781 5784 5786 5786
5776 5773 5774 5776 5777 5779 5775 5775 5774 5775 5775 5775 5782 5786 5783 5782 5781 5782 5779 5778 5782 5783
5772 5771 5771 5771 5769 5769 5768 5769 5769 5771 5772 5773 5776 5781 5779 5778 5779 5779 5781 5779 5779 5781
5770 5767 5766 5764 5763 5763 5763 5765 5765 5767 5770 5771 5773 5773 5772 5771 5773 5775 5776 5779 5780 5779
5768 5763 5761 5759 5759 5759 5759 5758 5760 5762 5764 5765 5767 5767 5765 5763 5770 5771 5772 5773 5775 5776
5770 5765 5759 5757 5755 5756 5756 5755 5756 5757 5759 5760 5761 5761 5757 5757 5764 5767 5770 5774 5772 5767
5766 5764 5760 5756 5754 5751 5751 5751 5752 5752 5753 5754 5752 5744 5744 5747 5757 5763 5763 5769 5766 5759